GW1109 Weather Reports


Display with metric or nautical units.
time (UTC)temp
F
wind
direction
speed
MPH
gust
MPH
rain 1hr
in
rain 24hr
in
rain mn
in
humidity
%
barometer
mb
20260901121601 61 21 1.0 5.0 0.00 0.00 0.00 74 1018.7
20260901120058 61 0 0.0 3.0 0.00 0.00 0.00 73 1018.9
20260901114600 61 0 1.0 3.0 0.00 0.00 0.00 74 1018.7
20260901113053 61 0 0.0 3.0 0.00 0.00 0.00 75 1018.4
20260901111553 61 57 0.0 3.0 0.00 0.00 0.00 74 1018.1
20260901110109 61 0 2.0 5.0 0.00 0.00 0.00 73 1018.0
20260901104606 61 360 0.0 9.0 0.00 0.00 0.00 73 1017.8
20260901103058 61 0 0.0 4.0 0.00 0.00 0.00 76 1017.8
20260901101603 60 0 1.0 5.0 0.00 0.00 0.00 78 1017.4
20260901094559 60 0 0.0 5.0 0.00 0.00 0.00 87 1017.2
20260901093055 60 0 0.0 3.0 0.00 0.00 0.00 91 1017.4
20260901091550 60 0 0.0 3.0 0.00 0.00 0.00 95 1017.5
20260901090059 60 0 0.0 2.0 0.00 0.00 0.00 97 1017.5
20260901084559 59 0 0.0 2.0 0.00 0.00 0.00 98 1017.5
20260901083053 59 0 0.0 2.0 0.00 0.00 0.00 98 1017.5
20260901081550 59 0 0.0 3.0 0.00 0.00 0.00 98 1017.5
20260901080049 58 0 0.0 1.0 0.00 0.00 0.00 98 1017.8
20260901074559 59 0 0.0 2.0 0.00 0.00 0.00 97 1017.6
20260901073050 60 5 0.0 2.0 0.00 0.00 0.00 96 1017.8
20260901071557 60 0 0.0 0.0 0.00 0.00 0.00 98 1018.0
20260901070047 59 0 0.0 0.0 0.00 0.00 0.00 96 1018.3
20260901064556 60 0 0.0 0.0 0.00 0.00 0.00 97 1018.0
20260901063052 59 0 0.0 0.0 0.00 0.00 0.00 96 1018.0
20260901061601 59 0 0.0 0.0 0.00 0.00 0.00 95 1017.9
20260901060048 59 0 0.0 0.0 0.00 0.00 0.00 94 1018.0
20260901054558 60 0 0.0 0.0 0.00 0.00 0.00 94 1018.2
20260901053055 59 0 0.0 0.0 0.00 0.00 0.00 94 1018.2
20260901051549 60 0 0.0 0.0 0.00 0.00 0.00 92 1018.1
20260901044557 61 0 0.0 0.0 0.00 0.00 0.00 93 1018.0
20260901043052 60 0 0.0 0.0 0.00 0.00 0.00 93 1018.1
20260901041606 59 0 0.0 0.0 0.00 0.00 0.00 93 1018.2
20260901040110 58 0 0.0 2.0 0.00 0.00 0.00 91 1018.1
20260901034555 59 51 0.0 1.0 0.00 0.00 0.00 89 1018.2
20260901033049 60 0 0.0 2.0 0.00 0.00 0.00 89 1018.2
20260901031553 60 0 0.0 1.0 0.00 0.00 0.00 87 1018.3
20260901030051 60 0 0.0 3.0 0.00 0.00 0.00 87 1018.3
20260901024553 60 0 0.0 2.0 0.00 0.00 0.00 87 1018.2
20260901023050 60 252 0.0 2.0 0.00 0.00 0.00 87 1018.2
20260901021600 60 0 0.0 1.0 0.00 0.00 0.00 88 1018.3
20260901020059 59 0 0.0 0.0 0.00 0.00 0.00 87 1018.3
20260901014554 60 0 0.0 0.0 0.00 0.01 0.00 85 1018.4
20260901013045 60 0 0.0 0.0 0.00 0.01 0.00 83 1018.4
20260901011600 60 0 0.0 0.0 0.00 0.01 0.00 81 1018.4
20260901010056 61 0 0.0 0.0 0.00 0.01 0.00 80 1018.3
20260901004552 62 0 0.0 2.0 0.00 0.01 0.00 78 1018.3
20260901003045 62 196 0.0 4.0 0.00 0.01 0.00 76 1018.3
20260901001602 63 183 2.0 4.0 0.00 0.01 0.00 75 1018.3
20260901000104 63 0 0.0 3.0 0.00 0.01 0.00 73 1018.3
20260831234555 64 0 0.0 2.0 0.00 0.01 0.00 72 1018.2
20260831233049 65 0 1.0 5.0 0.00 0.01 0.00 70 1018.4
20260831231605 66 198 3.0 9.0 0.00 0.01 0.00 68 1018.5
20260831230055 67 184 3.0 7.0 0.00 0.01 0.00 65 1018.6
20260831224552 69 156 0.0 5.0 0.00 0.01 0.00 62 1018.6
20260831223049 70 0 2.0 6.0 0.00 0.01 0.00 60 1018.4
20260831221559 71 136 0.0 7.0 0.00 0.01 0.00 57 1018.5
20260831220055 71 211 2.0 8.0 0.00 0.01 0.00 56 1018.3
20260831214558 71 209 3.0 11.0 0.00 0.01 0.00 56 1018.2
20260831213059 72 134 3.0 11.0 0.00 0.01 0.00 54 1018.2
20260831211558 73 147 4.0 12.0 0.00 0.01 0.00 51 1018.3
20260831210051 73 202 4.0 10.0 0.00 0.01 0.00 50 1018.3
20260831204559 74 200 4.0 11.0 0.00 0.01 0.00 49 1018.4
20260831203046 75 173 3.0 11.0 0.00 0.01 0.00 48 1018.4
20260831201555 75 192 3.0 8.0 0.00 0.01 0.00 47 1018.3
20260831200055 75 135 3.0 11.0 0.00 0.01 0.00 47 1018.2
20260831194623 74 211 5.0 10.0 0.00 0.01 0.00 49 1018.5
20260831193058 75 181 3.0 14.0 0.00 0.01 0.00 47 1018.6
20260831191554 77 169 2.0 6.0 0.00 0.01 0.00 32 1018.8
20260831190057 76 222 0.0 11.0 0.00 0.01 0.00 37 1018.9
20260831184601 76 147 2.0 10.0 0.00 0.01 0.00 35 1019.1
20260831183057 76 221 3.0 8.0 0.00 0.01 0.00 33 1018.9
20260831181600 75 172 3.0 8.0 0.00 0.01 0.00 37 1018.9
20260831180101 74 167 5.0 9.0 0.00 0.01 0.00 42 1019.2
20260831174553 74 240 3.0 8.0 0.00 0.01 0.00 35 1019.3
20260831173100 74 227 3.0 9.0 0.00 0.01 0.00 40 1019.5
20260831171559 74 131 2.0 9.0 0.00 0.01 0.00 41 1019.6
20260831170052 73 238 3.0 9.0 0.00 0.01 0.00 41 1019.7
20260831164610 73 300 3.0 8.0 0.00 0.01 0.00 43 1019.9
20260831163104 73 197 2.0 5.0 0.00 0.01 0.00 41 1019.9
20260831161559 72 144 1.0 9.0 0.00 0.01 0.00 45 1020.1
20260831160049 72 61 3.0 6.0 0.00 0.01 0.00 46 1020.1
20260831154618 72 204 2.0 6.0 0.00 0.01 0.00 47 1020.2
20260831153059 70 355 0.0 7.0 0.00 0.01 0.00 48 1020.4
20260831151552 70 76 2.0 5.0 0.00 0.01 0.00 50 1020.6
20260831150047 69 296 4.0 7.0 0.00 0.01 0.00 54 1020.6
20260831144607 68 343 3.0 9.0 0.00 0.01 0.00 55 1020.6
20260831143101 67 345 3.0 8.0 0.00 0.01 0.00 55 1020.7
20260831141558 67 360 4.0 8.0 0.00 0.01 0.00 55 1020.9
20260831140058 67 315 2.0 6.0 0.00 0.01 0.00 61 1020.8
20260831134551 66 290 3.0 8.0 0.00 0.01 0.00 62 1020.8
20260831133059 66 331 2.0 5.0 0.00 0.01 0.00 63 1020.8
20260831131550 65 294 2.0 7.0 0.00 0.01 0.00 65 1020.7
20260831130105 64 330 2.0 6.0 0.00 0.01 0.00 67 1020.5
20260831124547 64 323 2.0 4.0 0.00 0.01 0.00 70 1020.6
20260831123101 63 302 2.0 5.0 0.00 0.01 0.00 72 1020.6